This is the latest recevied weather packets stored in our database for station/object OK2ZAW-21. If no packets are shown the sender has not sent any weather packets the latest 10 day(s).
| Time | Temp. | Humidity | Pressure | Rain* | Wind** | Luminosity | Snow |
|---|---|---|---|---|---|---|---|
| 1788097589 | 25.56° C | 51% | 1019 hPa | - | - | 422 W/m² | - |
| 1788096965 | 25° C | 53% | 1019.1 hPa | - | - | 422 W/m² | - |
| 1788096653 | 24.44° C | 54% | 1019.1 hPa | - | - | 422 W/m² | - |
| 1788096342 | 25° C | 53% | 1019.1 hPa | - | - | 422 W/m² | - |
| 1788096030 | 24.44° C | 55% | 1019.1 hPa | - | - | 422 W/m² | - |
| 1788095718 | 24.44° C | 54% | 1019.2 hPa | - | - | 422 W/m² | - |
| 1788095406 | 23.89° C | 55% | 1019.2 hPa | - | - | 422 W/m² | - |
| 1788095094 | 24.44° C | 54% | 1019.3 hPa | - | - | 422 W/m² | - |
| 1788094782 | 25.56° C | 52% | 1019.3 hPa | - | - | 422 W/m² | - |
| 1788094471 | 26.11° C | 50% | 1019.4 hPa | - | - | 423 W/m² | - |
| 1788094159 | 26.67° C | 48% | 1019.3 hPa | - | - | 423 W/m² | - |
| 1788093847 | 27.78° C | 46% | 1019.4 hPa | - | - | 423 W/m² | - |
| 1788093534 | 27.22° C | 47% | 1019.4 hPa | - | - | 422 W/m² | - |
| 1788093222 | 26.67° C | 48% | 1019.5 hPa | - | - | 423 W/m² | - |
| 1788092910 | 26.67° C | 48% | 1019.4 hPa | - | - | 423 W/m² | - |
| 1788092598 | 25° C | 52% | 1019.5 hPa | - | - | 423 W/m² | - |
| 1788092286 | 24.44° C | 52% | 1019.5 hPa | - | - | 423 W/m² | - |
| 1788091975 | 25.56° C | 49% | 1019.6 hPa | - | - | 423 W/m² | - |
| 1788091662 | 27.22° C | 46% | 1019.6 hPa | - | - | 423 W/m² | - |
| 1788091350 | 26.67° C | 47% | 1019.6 hPa | - | - | 423 W/m² | - |
| 1788091038 | 27.22° C | 44% | 1019.4 hPa | - | - | 423 W/m² | - |
| 1788090726 | 26.67° C | 47% | 1018.9 hPa | - | - | 423 W/m² | - |
| 1788090414 | 24.44° C | 50% | 1019.6 hPa | - | - | 423 W/m² | - |
| 1788090102 | 27.22° C | 45% | 1019.7 hPa | - | - | 424 W/m² | - |
| 1788089478 | 26.11° C | 47% | 1019.6 hPa | - | - | 424 W/m² | - |
* Rain since midnight (hover to see other rain measurements)
** Current wind speed in m/s (hover to see current wind gust speed)